Location: downtown San Diego
(32.7310°N, 117.1990°W)
Time: 10:59:48
(UTC-07:00)

NOSS 2-3 (D) - Pass Details

Date: 14 June 2018
Orbit: 629 x 1582 km, 63.4° (Epoch: 18 June)

Event Time Altitude Azimuth Distance (km) Brightness Sun altitude
Exits shadow 21:57:50 - 214° (SW) 2,734 6.7 -20.6°
Reaches altitude 10° 21:59:38 10° 216° (SW) 2,002 6.0 -20.9°
Maximum altitude 22:04:02 72° 301° (WNW) 696 3.9 -21.5°
Drops below altitude 10° 22:08:59 10° 26° (NNE) 2,238 6.7 -22.2°
Sets 22:11:34 0° 29° (NNE) 3,278 7.6 -22.5°
